Free Severe Weather Alerts by Email and Text Message   

 
Follow iAlert.com on twitter @ialertcom
Search For Active Alerts in Your Area  
  Hi Guest:  [ Sign-up / Services ] [ Login ]

Current weather by "City, St" or "zip code"  

 

Advertise Here

Hazardous Weather Conditions

Special Weather Statement issued January 23 at 12:24PM EST

Current Conditions: NEW YORK, NEW YORK

Overcast


56.0 F

Last Updated on Jan 23 2018, 11:51 am EST
Humidity: 93%
Wind Speed: SE 6.9 mph
Barometer 29.58 in
Dewpoint: 54.0 F
Visibility: 8.00 mi
Precip: 00.01 in
Heat Index: NA
Wind Chill: 54 F
Current conditions at:

New York City, Central Park, NY (KNYC)

Lat: 40.78 Lon: -73.966

Local Radar Image active severe weather and emergency alerts image image weather storm and storm spotter reports image weather observation monitoring service image
Local
Radar
Active
Alerts
Storm Reports Weather
Monitoring

Weather Alert Notification Services


ialert severe weather and emergency alerts by text message and email ialert daily weather forecast by email and text message service ialert real-time weather-observation monitoring and alert notification service ialert storm report monitoring alert notification

Observation History for NEW YORK, NEW YORK


Time Wind
(mph)
Vis
(mi)
Weather Precip (in) Temperature (F) Relative
Humidity
Wind
Chill
(°F)
Heat
Index
(°F)
Pressure
Air Dwpt altimeter
(in)
sea level
(mb)
11:51 am EST SE 6.9 8.00 Overcast 00.01 56.0 54.0 93% 54 NA 29.58 1000.7
10:51 am EST 5.8 G 17.3 7.00 Overcast 00.02 55.0 53.1 93% 54 NA 29.65 1003.4
9:51 am EST S 8.1 2.00 Light Rain Fog/Mist 00.07 54.0 53.1 97% 52 NA 29.71 1005.4
8:51 am EST SE 5.8 2.50 Light Rain Fog/Mist 00.01 52.0 51.1 97% 50 NA 29.74 1006.2
7:51 am EST 3.5 4.00 Fog/Mist 00.01 50.0 50.0 100% NA NA 29.78 1007.5
6:51 am EST 5.8 2.50 Fog/Mist 00.02 44.0 44.1 100% 41 NA 29.80 1008.5
5:51 am EST SE 4.6 0.50 Fog -- 42.0 41.0 96% 39 NA 29.86 1010.3
4:51 am EST E 3.5 1.00 Fog/Mist -- 40.0 39.0 97% NA NA 29.89 1011.4
3:51 am EST NE 3.5 5.00 Fog/Mist -- 40.0 37.9 93% NA NA 29.93 1012.9
2:51 am EST N 0.0 5.00 Fog/Mist -- 39.0 37.9 96% NA NA 29.98 1014.3
1:51 am EST N 0.0 5.00 Fog/Mist -- 38.0 37.0 97% NA NA 30.01 1015.5
12:51 am EST 5.8 1.25 Fog/Mist -- 38.0 37.9 100% 34 NA 30.04 1016.5
11:51 pm EST E 8.1 0.50 Fog -- 39.0 37.9 96% 33 NA 30.09 1018.0
10:51 pm EST E 8.1 0.50 Fog -- 38.0 37.9 100% 32 NA 30.10 1018.5
9:51 pm EST NE 8.1 1.50 Fog/Mist -- 38.0 37.0 97% 32 NA 30.12 1019.1
8:51 pm EST 4.6 3.00 Fog/Mist -- 39.0 37.0 93% 36 NA 30.14 1019.9
7:51 pm EST 6.9 6.00 Fog/Mist -- 40.0 37.0 89% 35 NA 30.15 1020.3
6:51 pm EST NE 8.1 5.00 Fog/Mist -- 41.0 37.9 89% 36 NA 30.17 1020.7
5:51 pm EST E 8.1 5.00 Fog/Mist -- 42.0 39.0 89% 37 NA 30.17 1020.7
4:51 pm EST E 8.1 6.00 Fog/Mist -- 43.0 39.0 86% 38 NA 30.16 1020.6
3:51 pm EST E 8.1 6.00 Overcast with Haze -- 45.0 39.0 80% 41 NA 30.16 1020.3
2:51 pm EST 6.9 G 16.1 6.00 Mostly Cloudy with Haze -- 46.0 39.0 77% 42 NA 30.15 1020.0
1:51 pm EST E 9.2 5.00 Overcast with Haze -- 46.0 39.0 77% 41 NA 30.16 1020.6
12:51 pm EST E 5.8 5.00 Partly Cloudy with Haze -- 46.0 39.0 77% 43 NA 30.18 1021.3

Regional Weather Observation:


New York, La Guardia Airport, NY (KLGA)

Light Rain
53.0 F

Newark, Newark International Airport, NJ (KEWR)

Light Rain
60.0 F

New York, Kennedy International Airport, NY (KJFK)

Light Rain Fog/Mist and Breezy
51.0 F

Teterboro, Teterboro Airport, NJ (KTEB)

Overcast
58.0 F

Caldwell, Essex County Airport, NJ (KCDW)

Overcast
60.0 F

Morristown Municipal, NJ (KMMU)

Mostly Cloudy
59.0 F

Advertise Here


Advertise Here